This is the latest recevied weather packets stored in our database for station/object AB1AU. If no packets are shown the sender has not sent any weather packets the latest 10 day(s).
| Time | Temp. | Humidity | Pressure | Rain* | Wind** | Luminosity | Snow |
|---|---|---|---|---|---|---|---|
| 1777531209 | 6.67° C | 95% | 1013.1 hPa | 0 mm | - | 0 W/m² | - |
| 1777530906 | 6.67° C | 95% | 1013 hPa | 0 mm | - | 0 W/m² | - |
| 1777530603 | 6.67° C | 94% | 1013.1 hPa | 1.78 mm | - | 0 W/m² | - |
| 1777530301 | 6.67° C | 95% | 1013.2 hPa | 1.78 mm | - | 0 W/m² | - |
| 1777529996 | 6.67° C | 94% | 1013.4 hPa | 1.27 mm | - | 0 W/m² | - |
| 1777529694 | 6.67° C | 94% | 1013.6 hPa | 3.05 mm | - | 0 W/m² | - |
| 1777529390 | 6.67° C | 94% | 1013.4 hPa | 1.78 mm | - | 0 W/m² | - |
| 1777529087 | 6.67° C | 94% | 1013.4 hPa | 1.27 mm | - | 0 W/m² | - |
| 1777528782 | 6.67° C | 94% | 1013.6 hPa | 1.27 mm | - | 0 W/m² | - |
| 1777528479 | 6.67° C | 94% | 1013.7 hPa | 0 mm | - | 0 W/m² | - |
| 1777528178 | 6.67° C | 94% | 1013.7 hPa | 0 mm | - | 0 W/m² | - |
| 1777527874 | 6.67° C | 94% | 1013.8 hPa | 0 mm | - | 0 W/m² | - |
| 1777527571 | 6.67° C | 94% | 1013.7 hPa | 0 mm | - | 0 W/m² | - |
| 1777527271 | 6.67° C | 94% | 1014 hPa | 0 mm | - | 0 W/m² | - |
| 1777526967 | 6.67° C | 94% | 1014.1 hPa | 1.78 mm | - | 0 W/m² | - |
| 1777526662 | 6.67° C | 94% | 1014 hPa | 1.78 mm | - | 0 W/m² | - |
| 1777526358 | 6.67° C | 94% | 1014 hPa | 0 mm | - | 0 W/m² | - |
| 1777526054 | 6.67° C | 94% | 1014.1 hPa | 0 mm | - | 0 W/m² | - |
| 1777525750 | 6.67° C | 94% | 1014.2 hPa | 0 mm | - | 0 W/m² | - |
| 1777525448 | 6.67° C | 94% | 1014.2 hPa | 1.27 mm | - | 0 W/m² | - |
| 1777525143 | 6.67° C | 94% | 1014.3 hPa | 1.78 mm | - | 0 W/m² | - |
| 1777524840 | 6.67° C | 94% | 1014.3 hPa | 3.56 mm | - | 0 W/m² | - |
| 1777524538 | 6.67° C | 94% | 1014.4 hPa | 3.05 mm | - | 0 W/m² | - |
| 1777524235 | 6.67° C | 94% | 1014.7 hPa | 3.05 mm | - | 0 W/m² | - |
| 1777523930 | 6.67° C | 94% | 1014.8 hPa | 1.78 mm | - | 0 W/m² | - |
* Rain latest hour (hover to see other rain measurements)
** Current wind speed in m/s (hover to see current wind gust speed)